Home   Weather   Mechelen   Past weeks

Flag for Belgium Past Weather in Mechelen, Belgium — Yesterday and Last 2 Weeks

Now
28 °F

Clear.


Feels Like: 25 °F
Forecast: 28 / 41 °F
Wind: 3 mph from East

Location: Brussels National Airport

Current Time: Dec 4, 2016 at 3:09:48 am

Latest Report: Dec 4, 2016 at 2:20 am


Visibility: 4 mi

Pressure: 30.27 "Hg

Humidity: 93%

Dew Point: 27 °F

Location of MechelenLocation

Past Weather in Mechelen — Graph

°F

Mechelen Temperature Yesterday

Maximum temperature yesterday: 39 °F (at 2:20 pm)
Minimum temperature yesterday: 28 °F (at 10:50 pm)
Average temperature yesterday: 34 °F

High & Low Weather Summary for the Past Weeks

 TemperatureHumidityPressure
High57 °F (Nov 21, 11:50 am)100% (Nov 20, 9:50 pm)30.57 "Hg (Nov 20, 9:50 pm)
Low25 °F (Nov 29, 5:20 am)52% (Nov 30, 12:50 pm)29.12 "Hg (Nov 20, 8:20 am)
Average42 °F85%30.07 "Hg
* Reported Nov 19 1:20 am — Dec 4 1:50 am, Mechelen, Weather by CustomWeather, © 2016

Note: Actual official high and low records may vary slightly from our data, if they occured in-between our weather recording intervals... More about our weather records

Advertising

Mechelen Weather History for the Previous 24 Hours

Scroll right to see more
 ConditionsComfort  
Time TempWeatherWind HumidityBarometerVisibility
1:50 am
Sun, Dec 4
28 °FClear.3 mph93%30.27 "Hg4 mi
1:20 am28 °FClear.3 mph93%30.27 "Hg10 mi
12:50 am30 °FClear.3 mph86%30.27 "Hg10 mi
11:50 pm
Sat, Dec 3
30 °FClear.5 mph86%30.30 "Hg10 mi
11:20 pm30 °FClear.3 mph86%30.30 "Hg10 mi
10:50 pm28 °FClear.3 mph93%30.30 "Hg10 mi
10:20 pm30 °FClear.5 mph93%30.27 "Hg10 mi
9:50 pm30 °FClear.5 mph93%30.30 "Hg10 mi
9:20 pm30 °FClear.5 mph93%30.27 "Hg10 mi
8:50 pm32 °FClear.5 mph87%30.30 "Hg10 mi
8:20 pm32 °FClear.3 mph93%30.30 "Hg10 mi
7:50 pm34 °FClear.5 mph87%30.30 "Hg10 mi
7:20 pm32 °FClear.5 mph93%30.30 "Hg10 mi
6:50 pm32 °FClear.3 mph93%30.30 "Hg10 mi
6:20 pm34 °FClear.3 mph93%30.27 "Hg10 mi
5:50 pm34 °FClear.3 mph93%30.27 "Hg10 mi
5:20 pm36 °FClear.3 mph87%30.27 "Hg10 mi
4:50 pm36 °FClear.3 mph93%30.27 "Hg10 mi
4:20 pm37 °FSunny.5 mph93%30.27 "Hg10 mi
3:50 pm39 °FSunny.5 mph81%30.27 "Hg10 mi
3:20 pm39 °FSunny.6 mph87%30.27 "Hg10 mi
2:50 pm39 °FPassing clouds.6 mph87%30.27 "HgN/A
2:20 pm39 °FSunny.5 mph87%30.27 "Hg10 mi
1:50 pm37 °FSunny.3 mph93%30.30 "Hg10 mi
1:20 pm36 °FClear.5 mph93%30.30 "Hg4 mi
12:50 pm34 °FFog.5 mph93%30.30 "Hg1 mi
12:20 pm34 °FFog.3 mph100%30.30 "Hg1 mi
11:50 am32 °FFog.3 mph100%30.30 "Hg1 mi
11:20 am32 °FFog.5 mph100%30.30 "Hg0 mi
10:50 am32 °FFog.5 mph100%30.30 "Hg0 mi
10:20 am32 °FIce fog.3 mph100%30.30 "Hg0 mi
9:50 am32 °FIce fog.2 mph100%30.30 "Hg0 mi
9:20 am30 °FIce fog.3 mph100%30.30 "Hg0 mi
8:50 am30 °FIce fog.2 mph100%30.30 "Hg0 mi
8:20 am32 °FIce fog.2 mph100%30.27 "Hg0 mi
7:50 am32 °FIce fog.1 mph100%30.27 "Hg0 mi
7:20 am32 °FIce fog.1 mph100%30.27 "Hg0 mi
6:50 am32 °FIce fog.1 mph100%30.27 "Hg0 mi
6:20 am32 °FFog.No wind100%30.27 "Hg0 mi
5:50 am34 °FFog.1 mph93%30.24 "Hg0 mi
5:20 am34 °FFog.1 mph100%30.24 "Hg0 mi
4:50 am34 °FFog.2 mph100%30.24 "Hg0 mi
4:20 am36 °FFog.2 mph93%30.24 "Hg0 mi
3:50 am36 °FFog.2 mph100%30.24 "Hg0 mi
Weather by CustomWeather, © 2016

See weather overviewHow to use our weather pages